Theta_e
358 364 358 354 358 363 358 358 365 357 357 355 353 352 348 345 348 347 347 360 354 356 359 362 362 362 362 363 363 363 362 360 362 360 358 359 359 359 356 357 357 355 355
360 356 358 358 362 356 356 358 364 362 361 355 353 353 350 347 347 349 347 352 357 353 353 354 356 358 360 361 362 361 361 359 360 363 362 361 360 359 358 357 357 356 356
364 367 356 361 360 362 367 363 363 360 355 354 354 352 349 348 347 350 349 348 353 358 353 350 350 351 353 353 353 354 355 356 358 359 359 359 359 358 359 358 357 356 356
363 364 355 355 359 363 358 355 357 356 355 354 353 350 349 348 348 348 346 347 346 345 345 348 346 346 346 346 347 347 348 350 351 353 357 359 359 358 358 358 358 357 356
360 361 354 357 364 356 356 354 357 360 353 352 347 345 347 346 346 344 347 347 347 344 343 344 344 346 343 344 347 345 344 344 345 346 347 348 350 355 357 357 357 356 356
361 361 356 359 362 355 354 359 362 359 357 352 347 344 344 345 348 347 346 345 345 343 343 345 342 341 343 343 344 339 339 341 342 342 343 344 345 347 350 354 354 354 355
361 364 356 358 363 361 361 363 361 362 353 355 346 341 344 346 345 346 346 346 343 342 341 339 338 336 337 344 341 336 334 336 336 338 340 341 341 341 342 345 348 352 353
363 362 367 363 365 357 367 362 363 354 354 352 342 338 334 338 342 344 346 346 342 342 341 343 340 340 339 337 340 334 333 332 333 333 334 340 339 337 337 339 340 343 348
366 370 368 366 370 367 355 364 362 361 352 351 350 341 334 332 339 344 347 347 348 344 344 345 343 339 340 339 341 340 334 332 332 331 331 335 340 339 336 335 337 338 340
365 366 372 368 370 361 369 364 362 361 357 349 351 344 350 346 337 335 343 350 349 347 342 346 341 339 339 338 342 337 330 331 330 329 331 334 335 339 337 335 334 335 337
366 364 367 366 368 362 365 370 365 364 355 351 344 344 347 346 350 343 337 341 350 343 345 344 340 336 340 339 336 336 336 334 332 330 330 332 333 335 336 336 334 333 333
360 369 365 365 368 368 367 368 367 363 362 353 349 345 343 344 346 342 338 341 341 343 345 343 342 338 340 337 339 338 335 332 331 332 333 331 329 330 332 333 334 334 334
352 366 373 369 365 371 369 370 370 365 360 357 352 346 348 350 356 349 347 340 341 340 340 339 342 344 337 337 337 332 332 331 334 333 333 333 331 328 328 330 330 330 331
354 372 366 368 369 369 369 372 365 361 362 359 353 350 349 349 357 355 349 344 336 333 334 345 339 340 343 335 337 334 325 332 333 330 328 328 329 329 328 327 327 327 328
359 365 366 365 368 371 370 374 365 364 363 361 357 354 351 352 355 358 352 353 338 329 327 332 331 342 335 334 330 329 331 333 330 330 330 330 329 329 329 328 328 327 326
373 371 371 369 370 372 372 374 368 363 362 361 355 354 359 355 360 356 351 345 342 336 326 331 332 337 334 325 327 331 329 329 330 330 326 324 323 323 324 325 326 326 326
377 376 374 372 372 371 374 371 369 360 358 358 356 355 353 356 356 354 350 344 341 337 330 331 333 334 331 333 328 330 326 328 325 326 325 323 322 322 321 321 321 322 323
377 376 375 373 372 373 374 367 361 354 343 347 350 352 353 351 351 352 346 349 342 341 335 333 331 323 329 331 333 327 325 321 325 326 325 322 321 321 321 320 320 321 320
374 369 372 373 373 371 373 368 348 341 343 349 351 350 353 350 349 349 342 340 338 335 330 320 318 321 323 324 322 326 324 321 326 328 325 321 321 321 321 320 320 319 317
373 373 374 374 373 371 372 368 345 347 349 350 349 352 350 348 346 348 340 341 334 327 324 316 315 316 318 323 322 315 316 323 322 324 321 321 319 319 319 319 319 320 318
372 372 370 370 370 368 366 367 355 347 353 351 349 351 340 329 324 323 329 326 326 319 314 314 313 315 315 315 314 317 319 320 322 322 316 314 315 316 316 314 315 317 318
370 372 369 367 367 362 342 338 347 352 353 351 348 343 336 328 320 320 320 317 317 317 317 313 315 315 320 315 316 318 320 319 312 319 311 310 315 312 310 310 316 319 320
372 370 367 365 366 362 331 334 338 355 350 351 348 343 338 330 331 327 319 318 315 314 313 318 318 317 317 319 320 320 323 319 316 317 310 310 311 310 310 309 314 314 317
369 366 366 365 367 351 329 330 335 357 350 349 348 341 336 327 320 325 323 322 321 321 319 315 319 319 319 320 323 323 323 320 318 318 311 307 309 308 309 307 311 312 311
368 365 366 365 355 346 324 326 339 352 346 344 340 336 328 319 315 316 323 321 320 320 316 316 317 317 317 317 318 319 314 312 309 310 311 308 305 307 310 306 306 308 308
364 363 357 352 337 350 322 324 339 345 342 336 331 323 314 315 312 312 322 319 317 319 319 321 321 320 320 319 320 324 315 310 309 307 310 305 303 304 303 307 304 304 304
Wind_Speed
3 2 3 2 4 1 4 5 4 3 4 7 7 7 8 9 8 6 1 12 9 4 1 5 6 7 8 8 9 9 9 10 10 11 12 11 12 12 13 14 13 15 15
2 4 4 1 3 5 6 4 3 5 5 5 5 7 7 7 7 8 7 7 9 8 5 4 5 6 7 7 8 9 8 8 8 10 10 10 10 11 12 13 14 15 16
4 7 3 5 3 2 6 3 2 1 4 6 6 4 7 5 5 6 8 7 9 8 10 10 10 9 9 8 7 7 6 5 7 8 10 10 10 11 11 13 14 15 15
3 5 5 3 6 5 2 4 2 4 5 5 6 7 6 8 3 3 3 4 6 4 8 10 8 5 6 5 6 6 7 8 8 8 9 10 10 11 12 12 13 14 15
5 6 6 2 1 7 3 5 4 4 7 6 7 7 10 8 5 5 2 3 3 5 4 8 6 6 6 6 7 8 8 10 10 10 11 11 12 12 10 12 12 13 14
5 5 7 2 3 7 7 5 5 7 7 6 8 10 6 7 8 6 5 5 2 3 4 5 3 5 7 8 5 4 6 8 10 11 12 12 11 11 10 10 12 12 13
6 6 8 5 7 7 4 4 4 8 7 7 8 9 3 3 4 6 5 5 5 4 4 1 4 3 3 9 8 4 2 6 9 12 13 12 12 12 11 10 9 11 12
8 8 8 7 6 7 3 3 5 7 8 6 6 8 8 6 12 11 5 4 3 6 6 6 4 4 4 5 2 2 1 3 8 13 15 14 12 13 12 12 10 9 9
10 10 9 7 7 5 8 6 5 6 7 3 4 2 6 8 12 10 3 4 2 7 6 6 6 5 4 6 7 4 6 4 10 16 16 16 14 12 14 14 12 11 10
12 12 10 9 7 8 6 6 5 6 2 5 3 1 3 4 5 8 8 3 4 3 4 6 6 6 5 6 6 6 4 3 10 14 16 17 17 16 16 15 15 13 12
10 12 11 9 8 8 7 7 7 7 4 5 2 1 6 9 8 8 10 8 2 4 4 5 5 4 6 4 4 3 4 8 11 15 16 16 17 18 19 19 18 16 15
11 12 11 8 8 8 9 7 7 8 9 5 4 5 7 8 6 8 11 12 11 6 5 6 5 4 2 5 5 5 6 11 15 15 14 16 18 19 20 21 21 21 20
9 7 11 8 8 9 9 8 9 8 11 9 7 5 9 7 6 7 7 11 9 9 11 3 4 3 4 4 6 11 14 16 10 9 12 14 17 20 21 22 22 23 22
10 7 8 9 11 11 11 11 7 10 6 8 10 9 9 9 6 6 5 7 10 10 10 4 3 4 1 8 9 16 12 13 7 12 16 17 18 18 19 19 20 21 23
11 7 8 9 11 12 10 8 9 7 11 9 9 9 10 9 6 5 4 3 6 9 10 11 10 10 11 10 11 10 10 11 18 20 20 18 17 18 19 19 19 20 21
12 11 8 11 11 11 11 11 5 6 7 8 6 9 9 8 5 4 2 5 6 9 9 11 11 12 10 10 11 11 12 16 15 14 16 14 17 20 20 19 20 21 20
10 10 11 10 11 12 12 11 13 8 3 7 8 9 11 8 4 3 3 5 4 4 9 11 10 11 12 9 10 9 12 12 10 15 18 19 21 22 21 21 21 20 20
13 12 11 11 12 14 13 10 9 6 6 9 10 9 9 5 5 2 6 5 5 5 6 11 9 10 9 10 8 13 10 11 9 11 17 22 23 22 20 20 19 19 17
13 14 13 13 13 13 13 10 11 13 10 10 8 6 6 3 2 2 5 6 8 8 9 9 10 9 9 9 12 11 11 12 10 20 16 19 21 21 20 18 16 15 13
13 13 13 13 12 11 10 11 10 12 10 5 3 5 2 2 1 3 4 6 8 8 8 9 9 9 9 12 10 11 12 9 12 10 10 16 20 22 22 22 21 20 16
13 13 12 12 9 8 7 10 11 9 5 1 3 1 11 13 18 14 7 7 7 8 8 9 9 10 11 12 12 11 11 12 11 5 11 11 8 9 11 17 21 27 24
11 10 9 10 8 5 8 12 6 4 5 5 5 10 10 12 13 9 9 12 9 7 8 7 8 10 11 12 11 12 12 12 11 7 11 10 7 9 11 13 31 19 8
9 7 8 9 6 5 15 12 6 5 8 5 8 7 6 6 3 5 7 7 5 5 1 5 9 9 10 11 12 14 14 13 12 5 12 4 8 7 11 13 32 33 22
9 8 7 7 7 8 12 12 9 10 8 8 5 9 9 9 9 10 7 6 6 4 4 5 5 7 7 8 11 12 13 13 9 5 13 4 10 7 11 13 32 33 33
8 8 8 8 10 9 9 10 9 10 9 9 9 8 10 10 11 12 5 5 4 5 4 7 8 7 7 6 8 12 13 13 13 9 14 7 8 8 4 14 15 30 31
10 8 11 11 12 13 7 8 7 10 9 9 9 11 17 11 10 10 6 5 4 4 4 6 2 10 9 11 10 10 13 13 11 5 13 8 11 8 5 7 14 14 14
Wind_Direction
135 13 352 3 41 69 96 60 19 49 338 349 354 360 349 1 353 354 29 129 121 113 258 262 258 261 262 259 262 261 257 254 248 240 244 246 249 249 245 245 238 240 237
307 146 212 158 101 43 12 348 34 332 304 331 359 7 336 356 17 344 339 125 122 118 95 14 324 295 282 272 259 255 260 265 268 253 247 245 246 246 251 250 244 238 238
156 315 108 281 61 63 243 237 287 254 321 332 334 317 311 340 7 353 312 349 132 114 99 71 40 34 37 30 23 23 13 336 295 275 260 248 243 243 240 241 244 241 238
241 238 219 230 66 271 282 287 121 329 319 309 323 315 320 316 21 198 27 338 359 90 124 123 113 94 71 46 30 25 24 21 11 349 325 292 267 245 242 243 238 239 237
203 267 267 149 189 297 277 286 59 314 313 315 309 328 329 314 297 335 292 316 68 350 355 138 142 130 106 58 44 28 18 7 360 353 347 341 330 302 256 239 240 239 240
210 232 252 272 268 269 273 11 349 323 316 314 323 314 329 301 310 316 298 301 107 317 327 28 349 166 149 147 123 49 7 1 350 343 340 338 336 342 334 270 240 235 239
200 226 267 211 223 261 300 337 304 284 322 28 314 347 24 250 296 325 317 313 359 320 321 311 265 348 165 172 142 145 37 354 344 330 320 319 322 329 333 340 324 249 233
226 234 249 283 282 302 192 220 277 315 320 59 356 316 344 340 359 320 347 336 263 287 281 263 351 292 286 317 101 139 184 356 344 330 314 304 304 315 319 319 320 328 290
237 237 253 259 300 295 284 179 237 279 308 52 125 19 341 338 332 348 263 239 256 267 285 308 283 250 287 307 289 43 123 21 338 322 310 299 293 292 301 306 307 307 310
229 237 241 248 246 268 304 183 245 262 242 266 289 14 202 260 303 316 324 358 220 282 248 271 284 265 254 264 344 82 68 291 326 324 309 302 297 290 289 290 295 296 295
222 238 240 233 240 246 259 220 213 240 237 243 192 311 315 294 303 311 310 298 171 205 269 229 238 294 269 286 312 88 53 353 320 311 305 299 296 293 290 285 281 284 286
217 218 240 232 231 240 244 206 212 229 251 260 255 296 298 298 318 316 316 309 312 338 273 240 260 69 309 249 291 93 6 323 300 295 286 290 298 295 290 286 281 281 279
237 212 186 220 224 221 247 198 203 234 228 216 248 273 294 277 292 297 306 295 296 324 288 205 126 209 290 12 346 30 334 297 293 284 280 280 283 286 287 287 287 283 276
249 250 193 209 222 237 217 201 204 227 251 242 252 254 279 292 292 296 282 297 307 306 324 18 338 122 313 1 4 345 322 333 359 308 287 278 271 268 271 274 275 279 279
273 243 231 233 225 234 227 201 219 226 214 221 240 263 268 281 291 296 272 291 303 305 320 323 340 360 7 353 338 324 325 326 317 290 275 274 276 269 265 267 265 263 260
220 252 241 219 240 239 222 209 200 232 257 252 223 250 274 275 289 298 264 267 264 265 318 331 334 343 4 340 338 341 320 302 304 321 28 4 338 319 308 299 288 272 260
240 223 230 242 229 234 226 205 206 197 244 248 239 262 273 284 293 277 237 266 290 5 329 320 319 351 337 329 329 317 316 302 315 41 14 354 336 321 316 307 297 287 275
222 225 227 232 236 236 231 201 185 93 245 272 259 278 277 287 297 257 255 39 326 309 323 321 344 327 328 330 336 333 316 333 341 341 5 346 326 318 313 305 298 280 269
222 226 220 226 229 235 237 182 144 176 204 244 265 290 272 320 303 59 0 340 354 351 329 331 313 333 332 357 346 323 349 335 318 341 353 312 319 326 330 324 306 295 268
223 222 223 223 226 239 241 189 157 185 226 274 329 290 243 131 211 34 319 10 32 337 345 332 332 336 348 6 333 347 329 321 332 333 321 317 340 335 328 324 320 308 285
221 225 225 227 216 230 206 220 165 215 252 173 239 239 79 76 66 51 14 25 11 1 350 349 340 348 351 343 348 338 321 330 327 18 345 334 332 324 343 341 321 306 283
219 217 223 230 191 192 173 125 176 192 151 171 145 112 105 94 79 85 92 73 63 29 11 353 351 348 1 348 344 332 320 331 336 32 342 325 350 347 353 339 337 335 325
202 190 203 226 172 159 135 135 155 160 150 166 125 143 148 100 91 76 87 89 119 123 215 330 333 355 343 354 333 325 339 344 337 11 342 319 359 350 1 350 8 27 30
187 184 191 200 150 118 126 145 166 151 130 126 120 83 93 79 43 36 25 10 3 4 35 358 356 350 5 352 349 339 351 351 353 33 359 328 348 348 7 4 15 24 33
156 166 177 121 115 125 131 156 168 127 104 96 89 90 93 80 39 26 358 8 354 20 150 224 243 269 275 290 318 6 4 359 357 355 11 345 351 335 20 13 9 20 28
152 141 102 110 117 134 146 155 170 117 133 113 110 83 61 74 47 20 356 7 7 20 352 320 59 229 229 128 48 34 23 16 4 347 6 7 354 356 358 14 18 18 16